| time (UTC) | temp F | wind direction | speed MPH | gust MPH | rain 1hr in | rain 24hr in | rain mn in | humidity % | barometer mb |
| 20260901103600 | 68 | 321 | 0.0 | 0.0 | 0.00 | 0.89 | 0.00 | 89 | 1011.7 |
| 20260901103059 | 68 | 321 | 0.0 | 0.0 | 0.00 | 0.89 | 0.00 | 89 | 1011.6 |
| 20260901102559 | 68 | 321 | 0.0 | 0.0 | 0.00 | 0.89 | 0.00 | 90 | 1011.6 |
| 20260901102059 | 68 | 321 | 0.0 | 0.0 | 0.00 | 0.89 | 0.00 | 90 | 1011.5 |
| 20260901101558 | 68 | 321 | 0.0 | 0.0 | 0.00 | 0.89 | 0.00 | 90 | 1011.5 |
| 20260901101319 | 68 | 321 | 0.0 | 0.0 | 0.00 | 0.89 | 0.00 | 90 | 1011.5 |
| 20260901100559 | 68 | 321 | 0.0 | 0.0 | 0.00 | 0.89 | 0.00 | 90 | 1011.5 |
| 20260901100058 | 68 | 323 | 0.0 | 0.0 | 0.00 | 0.89 | 0.00 | 90 | 1011.6 |
| 20260901095558 | 68 | 321 | 0.0 | 0.0 | 0.00 | 0.89 | 0.00 | 89 | 1011.5 |
| 20260901095059 | 68 | 321 | 0.0 | 0.0 | 0.00 | 0.89 | 0.00 | 89 | 1011.5 |
| 20260901094558 | 68 | 321 | 0.0 | 0.0 | 0.00 | 0.89 | 0.00 | 90 | 1011.6 |
| 20260901094058 | 68 | 321 | 0.0 | 0.0 | 0.00 | 0.89 | 0.00 | 90 | 1011.6 |
| 20260901093558 | 68 | 321 | 0.0 | 0.0 | 0.00 | 0.89 | 0.00 | 89 | 1011.6 |
| 20260901093057 | 68 | 321 | 0.0 | 0.0 | 0.00 | 0.89 | 0.00 | 89 | 1011.5 |
| 20260901092558 | 68 | 323 | 0.0 | 0.0 | 0.00 | 0.89 | 0.00 | 88 | 1011.5 |
| 20260901092058 | 68 | 321 | 0.0 | 0.0 | 0.00 | 0.89 | 0.00 | 88 | 1011.4 |
| 20260901091557 | 68 | 321 | 0.0 | 0.0 | 0.00 | 0.89 | 0.00 | 87 | 1011.5 |
| 20260901091057 | 68 | 321 | 0.0 | 0.0 | 0.00 | 0.89 | 0.00 | 87 | 1011.5 |
| 20260901090557 | 68 | 321 | 0.0 | 0.0 | 0.00 | 0.89 | 0.00 | 86 | 1011.6 |
| 20260901090057 | 69 | 321 | 0.0 | 0.0 | 0.00 | 0.89 | 0.00 | 85 | 1011.6 |
| 20260901085557 | 69 | 321 | 0.0 | 0.0 | 0.00 | 0.89 | 0.00 | 84 | 1011.5 |
| 20260901085057 | 69 | 321 | 0.0 | 0.0 | 0.00 | 0.89 | 0.00 | 84 | 1011.5 |
| 20260901084556 | 69 | 321 | 0.0 | 0.0 | 0.00 | 0.89 | 0.00 | 83 | 1011.6 |
| 20260901084057 | 69 | 321 | 0.0 | 0.0 | 0.00 | 0.89 | 0.00 | 83 | 1011.6 |
| 20260901083556 | 69 | 321 | 0.0 | 0.0 | 0.00 | 0.89 | 0.00 | 83 | 1011.7 |
| 20260901083057 | 70 | 321 | 0.0 | 0.0 | 0.00 | 0.89 | 0.00 | 83 | 1011.7 |
| 20260901082556 | 70 | 321 | 0.0 | 0.0 | 0.00 | 0.89 | 0.00 | 84 | 1011.6 |
| 20260901082317 | 70 | 321 | 0.0 | 0.0 | 0.00 | 0.89 | 0.00 | 83 | 1011.6 |
| 20260901082042 | 70 | 283 | 0.0 | 0.0 | 0.00 | 0.89 | 0.00 | 83 | 1011.7 |
| 20260901081056 | 70 | 283 | 0.0 | 0.0 | 0.00 | 0.89 | 0.00 | 83 | 1011.6 |
| 20260901080555 | 70 | 107 | 0.0 | 0.0 | 0.00 | 0.89 | 0.00 | 84 | 1011.7 |
| 20260901080056 | 71 | 109 | 0.0 | 0.0 | 0.00 | 0.89 | 0.00 | 83 | 1011.6 |
| 20260901075556 | 71 | 109 | 0.0 | 0.0 | 0.00 | 0.89 | 0.00 | 83 | 1011.6 |
| 20260901075055 | 71 | 109 | 0.0 | 0.0 | 0.00 | 0.89 | 0.00 | 82 | 1011.6 |
| 20260901074819 | 72 | 109 | 0.0 | 0.0 | 0.00 | 0.89 | 0.00 | 81 | 1011.6 |
| 20260901074055 | 72 | 109 | 0.0 | 0.0 | 0.00 | 0.89 | 0.00 | 79 | 1011.7 |
| 20260901073555 | 72 | 109 | 0.0 | 1.0 | 0.00 | 0.89 | 0.00 | 79 | 1011.6 |
| 20260901073546 | 72 | 109 | 0.0 | 1.0 | 0.00 | 0.89 | 0.00 | 78 | 1011.8 |
| 20260901072554 | 73 | 145 | 0.0 | 2.0 | 0.00 | 0.89 | 0.00 | 77 | 1011.8 |
| 20260901071555 | 73 | 96 | 0.0 | 2.0 | 0.00 | 0.89 | 0.00 | 74 | 1011.7 |
| 20260901071054 | 74 | 151 | 0.0 | 1.0 | 0.00 | 0.89 | 0.00 | 67 | 1011.7 |
| 20260901070554 | 74 | 87 | 0.0 | 1.0 | 0.00 | 0.89 | 0.00 | 67 | 1011.7 |
| 20260901070054 | 74 | 75 | 0.0 | 0.0 | 0.00 | 0.89 | 0.00 | 67 | 1011.7 |
| 20260901065554 | 74 | 75 | 0.0 | 1.0 | 0.00 | 0.89 | 0.89 | 67 | 1011.7 |
| 20260901065054 | 74 | 31 | 0.0 | 1.0 | 0.00 | 0.89 | 0.89 | 68 | 1011.7 |
| 20260901064554 | 74 | 85 | 0.0 | 1.0 | 0.00 | 0.89 | 0.89 | 68 | 1011.8 |
| 20260901064053 | 74 | 79 | 0.0 | 1.0 | 0.00 | 0.89 | 0.89 | 68 | 1011.8 |
| 20260901063554 | 74 | 86 | 0.0 | 1.0 | 0.00 | 0.89 | 0.89 | 67 | 1012.0 |
| 20260901063054 | 74 | 49 | 0.0 | 2.0 | 0.00 | 0.89 | 0.89 | 67 | 1012.1 |
| 20260901062554 | 75 | 76 | 0.0 | 2.0 | 0.00 | 0.89 | 0.89 | 66 | 1012.0 |
| 20260901062055 | 74 | 69 | 0.0 | 4.0 | 0.00 | 0.89 | 0.89 | 67 | 1012.1 |
| 20260901061557 | 74 | 39 | 1.0 | 4.0 | 0.00 | 0.89 | 0.89 | 67 | 1012.1 |
| 20260901061053 | 74 | 85 | 0.0 | 1.0 | 0.00 | 0.89 | 0.89 | 67 | 1012.0 |
| 20260901060811 | 75 | 83 | 0.0 | 2.0 | 0.00 | 0.89 | 0.89 | 66 | 1012.1 |
| 20260901060316 | 75 | 68 | 0.0 | 4.0 | 0.00 | 0.89 | 0.89 | 64 | 1012.0 |
| 20260901055553 | 75 | 42 | 1.0 | 4.0 | 0.00 | 0.89 | 0.89 | 67 | 1012.1 |
| 20260901055052 | 75 | 47 | 0.0 | 6.0 | 0.00 | 0.89 | 0.89 | 67 | 1012.0 |
| 20260901054552 | 75 | 54 | 3.0 | 6.0 | 0.00 | 0.89 | 0.89 | 67 | 1012.0 |
| 20260901054311 | 75 | 49 | 0.0 | 4.0 | 0.00 | 0.89 | 0.89 | 68 | 1012.0 |
| 20260901053552 | 74 | 1 | 1.0 | 4.0 | 0.00 | 0.89 | 0.89 | 68 | 1011.8 |
| 20260901053052 | 74 | 23 | 1.0 | 3.0 | 0.00 | 0.89 | 0.89 | 69 | 1012.0 |
| 20260901052552 | 74 | 32 | 0.0 | 1.0 | 0.00 | 0.89 | 0.89 | 71 | 1012.0 |
| 20260901052052 | 74 | 38 | 0.0 | 1.0 | 0.00 | 0.89 | 0.89 | 72 | 1012.0 |
| 20260901051551 | 74 | 38 | 0.0 | 1.0 | 0.00 | 0.89 | 0.89 | 72 | 1012.1 |
| 20260901051051 | 74 | 89 | 0.0 | 0.0 | 0.00 | 0.89 | 0.89 | 72 | 1012.1 |
| 20260901050812 | 74 | 69 | 0.0 | 0.0 | 0.00 | 0.89 | 0.89 | 73 | 1012.1 |
| 20260901050051 | 74 | 39 | 0.0 | 0.0 | 0.00 | 0.89 | 0.89 | 74 | 1012.0 |
| 20260901045552 | 74 | 38 | 0.0 | 2.0 | 0.00 | 0.89 | 0.89 | 73 | 1012.2 |
| 20260901045051 | 74 | 39 | 0.0 | 2.0 | 0.00 | 0.89 | 0.89 | 72 | 1012.2 |
| 20260901044551 | 74 | 49 | 0.0 | 1.0 | 0.00 | 0.89 | 0.89 | 73 | 1012.3 |
| 20260901044051 | 74 | 37 | 0.0 | 2.0 | 0.00 | 0.89 | 0.89 | 73 | 1012.4 |
| 20260901043551 | 74 | 54 | 0.0 | 3.0 | 0.00 | 0.89 | 0.89 | 74 | 1012.4 |
| 20260901043051 | 74 | 20 | 0.0 | 3.0 | 0.00 | 0.89 | 0.89 | 73 | 1012.3 |
| 20260901042551 | 74 | 31 | 0.0 | 3.0 | 0.00 | 0.89 | 0.89 | 74 | 1012.3 |
| 20260901042050 | 74 | 42 | 0.0 | 2.0 | 0.00 | 0.89 | 0.89 | 74 | 1012.3 |
| 20260901041551 | 74 | 49 | 0.0 | 2.0 | 0.00 | 0.89 | 0.89 | 74 | 1012.3 |
| 20260901041314 | 74 | 38 | 0.0 | 3.0 | 0.00 | 0.89 | 0.89 | 76 | 1012.2 |
| 20260901040810 | 74 | 31 | 1.0 | 3.0 | 0.00 | 0.89 | 0.89 | 77 | 1012.3 |
| 20260901040050 | 74 | 25 | 0.0 | 0.0 | 0.00 | 0.89 | 0.89 | 78 | 1012.2 |
| 20260901035550 | 74 | 25 | 0.0 | 0.0 | 0.00 | 0.89 | 0.89 | 79 | 1012.1 |
| 20260901035051 | 74 | 58 | 0.0 | 0.0 | 0.00 | 0.89 | 0.89 | 79 | 1012.0 |
| 20260901034550 | 74 | 59 | 0.0 | 1.0 | 0.00 | 0.89 | 0.89 | 79 | 1012.0 |
| 20260901034051 | 73 | 38 | 0.0 | 1.0 | 0.00 | 0.89 | 0.89 | 80 | 1012.0 |
| 20260901033550 | 73 | 358 | 0.0 | 0.0 | 0.00 | 0.89 | 0.89 | 81 | 1011.8 |
| 20260901033049 | 73 | 358 | 0.0 | 0.0 | 0.00 | 0.89 | 0.89 | 79 | 1011.8 |
| 20260901032549 | 73 | 358 | 0.0 | 0.0 | 0.00 | 0.89 | 0.89 | 79 | 1011.7 |
| 20260901032049 | 74 | 358 | 0.0 | 0.0 | 0.00 | 0.89 | 0.89 | 79 | 1011.8 |
| 20260901031550 | 74 | 358 | 0.0 | 0.0 | 0.00 | 0.89 | 0.89 | 79 | 1011.8 |
| 20260901031309 | 74 | 358 | 0.0 | 0.0 | 0.00 | 0.89 | 0.89 | 77 | 1011.7 |
| 20260901030549 | 74 | 38 | 0.0 | 0.0 | 0.00 | 0.89 | 0.89 | 78 | 1011.5 |
| 20260901030053 | 74 | 39 | 0.0 | 0.0 | 0.00 | 0.89 | 0.89 | 77 | 1011.5 |
| 20260901025809 | 74 | 38 | 0.0 | 0.0 | 0.00 | 0.89 | 0.89 | 78 | 1011.4 |
| 20260901025049 | 74 | 39 | 0.0 | 0.0 | 0.00 | 0.89 | 0.89 | 77 | 1011.4 |
| 20260901024548 | 74 | 39 | 0.0 | 0.0 | 0.00 | 0.89 | 0.89 | 78 | 1011.3 |
| 20260901024049 | 74 | 39 | 0.0 | 0.0 | 0.00 | 0.89 | 0.89 | 80 | 1011.1 |
| 20260901023548 | 74 | 39 | 0.0 | 0.0 | 0.00 | 0.89 | 0.89 | 80 | 1011.1 |
| 20260901023047 | 74 | 39 | 0.0 | 0.0 | 0.00 | 0.89 | 0.89 | 79 | 1010.9 |
| 20260901022548 | 74 | 39 | 0.0 | 0.0 | 0.00 | 0.89 | 0.89 | 79 | 1010.9 |
| 20260901022048 | 74 | 39 | 0.0 | 0.0 | 0.00 | 0.89 | 0.89 | 78 | 1010.8 |
| 20260901021808 | 74 | 219 | 0.0 | 0.0 | 0.00 | 0.89 | 0.89 | 79 | 1010.9 |
| 20260901021047 | 74 | 219 | 0.0 | 0.0 | 0.00 | 0.89 | 0.89 | 78 | 1010.8 |
| 20260901020547 | 74 | 219 | 0.0 | 0.0 | 0.00 | 0.89 | 0.89 | 78 | 1010.8 |
| 20260901020048 | 74 | 219 | 0.0 | 0.0 | 0.00 | 0.89 | 0.89 | 78 | 1010.5 |
| 20260901015547 | 75 | 219 | 0.0 | 0.0 | 0.00 | 0.89 | 0.89 | 78 | 1010.5 |
| 20260901015306 | 75 | 219 | 0.0 | 0.0 | 0.00 | 0.89 | 0.89 | 76 | 1010.4 |
| 20260901014547 | 76 | 219 | 0.0 | 0.0 | 0.00 | 0.89 | 0.89 | 75 | 1010.2 |
| 20260901014046 | 76 | 219 | 0.0 | 0.0 | 0.00 | 0.89 | 0.89 | 74 | 1010.1 |
| 20260901013546 | 76 | 219 | 0.0 | 0.0 | 0.00 | 0.89 | 0.89 | 73 | 1010.0 |
| 20260901013047 | 76 | 219 | 0.0 | 0.0 | 0.00 | 0.89 | 0.89 | 72 | 1010.1 |
| 20260901012546 | 76 | 219 | 0.0 | 0.0 | 0.00 | 0.89 | 0.89 | 72 | 1009.9 |
| 20260901012047 | 77 | 219 | 0.0 | 0.0 | 0.00 | 0.89 | 0.89 | 71 | 1009.9 |
| 20260901011546 | 77 | 219 | 0.0 | 0.0 | 0.00 | 0.89 | 0.89 | 69 | 1010.0 |
| 20260901011046 | 77 | 219 | 0.0 | 0.0 | 0.00 | 0.89 | 0.89 | 70 | 1010.0 |
| 20260901010546 | 77 | 219 | 0.0 | 0.0 | 0.00 | 0.89 | 0.89 | 67 | 1009.9 |
| 20260901010046 | 77 | 219 | 0.0 | 0.0 | 0.00 | 0.89 | 0.89 | 67 | 1009.9 |
| 20260901005546 | 77 | 219 | 0.0 | 0.0 | 0.00 | 0.89 | 0.89 | 68 | 1009.9 |
| 20260901005045 | 78 | 219 | 0.0 | 0.0 | 0.00 | 0.89 | 0.89 | 67 | 1009.9 |
| 20260901004545 | 78 | 219 | 0.0 | 0.0 | 0.00 | 0.89 | 0.89 | 64 | 1009.9 |
| 20260901004046 | 78 | 219 | 0.0 | 0.0 | 0.00 | 0.89 | 0.89 | 65 | 1009.9 |
| 20260901003545 | 78 | 219 | 0.0 | 0.0 | 0.00 | 0.89 | 0.89 | 64 | 1010.0 |
| 20260901003045 | 78 | 219 | 0.0 | 1.0 | 0.00 | 0.89 | 0.89 | 64 | 1009.9 |
| 20260901002545 | 79 | 237 | 0.0 | 1.0 | 0.00 | 0.89 | 0.89 | 63 | 1009.8 |
| 20260901002045 | 79 | 158 | 0.0 | 0.0 | 0.00 | 0.89 | 0.89 | 63 | 1009.9 |
| 20260901001809 | 79 | 348 | 0.0 | 1.0 | 0.00 | 0.89 | 0.89 | 62 | 1009.9 |
| 20260901001044 | 79 | 348 | 0.0 | 3.0 | 0.00 | 0.89 | 0.89 | 63 | 1009.9 |
| 20260901000547 | 79 | 306 | 1.0 | 3.0 | 0.00 | 0.89 | 0.89 | 59 | 1010.1 |
| 20260901000305 | 79 | 296 | 0.0 | 1.0 | 0.00 | 0.89 | 0.89 | 62 | 1010.1 |
| 20260831235545 | 79 | 295 | 0.0 | 2.0 | 0.00 | 0.89 | 0.89 | 63 | 1010.2 |
| 20260831235045 | 80 | 296 | 0.0 | 3.0 | 0.00 | 0.89 | 0.89 | 60 | 1010.2 |
| 20260831234544 | 80 | 303 | 1.0 | 3.0 | 0.00 | 0.89 | 0.89 | 59 | 1010.2 |
| 20260831234044 | 81 | 258 | 0.0 | 2.0 | 0.00 | 0.89 | 0.89 | 58 | 1010.1 |
| 20260831233543 | 81 | 220 | 0.0 | 1.0 | 0.00 | 0.89 | 0.89 | 56 | 1010.1 |
| 20260831233044 | 82 | 220 | 0.0 | 1.0 | 0.00 | 0.89 | 0.89 | 56 | 1010.1 |
| 20260831232544 | 82 | 271 | 0.0 | 1.0 | 0.00 | 0.89 | 0.89 | 57 | 1010.1 |
| 20260831232043 | 82 | 178 | 0.0 | 0.0 | 0.00 | 0.89 | 0.89 | 56 | 1010.2 |
| 20260831231544 | 81 | 196 | 0.0 | 0.0 | 0.00 | 0.89 | 0.89 | 59 | 1010.2 |
| 20260831231043 | 80 | 166 | 0.0 | 2.0 | 0.00 | 0.89 | 0.89 | 63 | 1010.3 |
| 20260831230543 | 79 | 166 | 0.0 | 4.0 | 0.00 | 0.89 | 0.89 | 62 | 1010.3 |
| 20260831230043 | 78 | 203 | 0.0 | 5.0 | 0.00 | 0.89 | 0.89 | 64 | 1010.3 |
| 20260831225542 | 78 | 195 | 1.0 | 6.0 | 0.00 | 0.89 | 0.89 | 65 | 1010.7 |
| 20260831225306 | 78 | 161 | 1.0 | 7.0 | 0.00 | 0.89 | 0.89 | 67 | 1010.5 |
| 20260831224543 | 77 | 178 | 1.0 | 7.0 | 0.00 | 0.89 | 0.89 | 67 | 1010.7 |
| 20260831224303 | 77 | 111 | 2.0 | 9.0 | 0.00 | 0.89 | 0.89 | 67 | 1010.8 |
| 20260831223543 | 78 | 137 | 2.0 | 9.0 | 0.00 | 0.89 | 0.89 | 69 | 1010.8 |
| 20260831223043 | 78 | 152 | 0.0 | 3.0 | 0.00 | 0.89 | 0.89 | 70 | 1010.8 |
| 20260831222542 | 78 | 189 | 0.0 | 2.0 | 0.00 | 0.89 | 0.89 | 70 | 1010.8 |
| 20260831222043 | 77 | 104 | 0.0 | 3.0 | 0.00 | 0.89 | 0.89 | 69 | 1010.8 |
| 20260831221801 | 78 | 140 | 0.0 | 4.0 | 0.00 | 0.89 | 0.89 | 72 | 1010.8 |
| 20260831221042 | 77 | 165 | 0.0 | 7.0 | 0.00 | 0.89 | 0.89 | 74 | 1011.0 |
| 20260831220542 | 77 | 154 | 2.0 | 7.0 | 0.01 | 0.89 | 0.89 | 72 | 1011.1 |
| 20260831220304 | 76 | 165 | 1.0 | 4.0 | 0.01 | 0.89 | 0.89 | 77 | 1011.2 |
| 20260831215542 | 75 | 124 | 0.0 | 6.0 | 0.02 | 0.89 | 0.89 | 80 | 1011.2 |
| 20260831215042 | 73 | 102 | 0.0 | 9.0 | 0.02 | 0.89 | 0.89 | 82 | 1011.3 |
| 20260831214541 | 73 | 131 | 1.0 | 9.0 | 0.02 | 0.89 | 0.89 | 80 | 1011.3 |
| 20260831214041 | 72 | 102 | 4.0 | 7.0 | 0.03 | 0.89 | 0.89 | 81 | 1011.5 |
| 20260831213541 | 71 | 83 | 1.0 | 6.0 | 0.03 | 0.89 | 0.89 | 84 | 1011.5 |
| 20260831213040 | 71 | 116 | 1.0 | 4.0 | 0.03 | 0.89 | 0.89 | 86 | 1011.6 |
| 20260831212541 | 70 | 113 | 0.0 | 0.0 | 0.04 | 0.89 | 0.89 | 88 | 1011.7 |
| 20260831212040 | 70 | 39 | 0.0 | 0.0 | 0.04 | 0.89 | 0.89 | 87 | 1012.1 |
| 20260831211806 | 70 | 39 | 0.0 | 7.0 | 0.05 | 0.89 | 0.89 | 86 | 1012.2 |
| 20260831211040 | 70 | 76 | 2.0 | 10.0 | 0.07 | 0.89 | 0.89 | 85 | 1012.2 |
| 20260831210541 | 69 | 20 | 4.0 | 10.0 | 0.08 | 0.88 | 0.88 | 85 | 1012.5 |
| 20260831210041 | 69 | 99 | 3.0 | 7.0 | 0.10 | 0.88 | 0.88 | 86 | 1012.7 |
| 20260831205800 | 69 | 109 | 1.0 | 7.0 | 0.10 | 0.87 | 0.87 | 86 | 1013.0 |
| 20260831205039 | 69 | 63 | 0.0 | 7.0 | 0.12 | 0.87 | 0.87 | 87 | 1013.3 |
| 20260831204540 | 69 | 90 | 3.0 | 9.0 | 0.12 | 0.87 | 0.87 | 87 | 1013.3 |
| 20260831204040 | 69 | 63 | 3.0 | 9.0 | 0.12 | 0.86 | 0.86 | 87 | 1013.6 |
| 20260831203539 | 69 | 93 | 4.0 | 9.0 | 0.13 | 0.86 | 0.86 | 88 | 1013.8 |
| 20260831203521 | 69 | 89 | 3.0 | 7.0 | 0.13 | 0.86 | 0.86 | 88 | 1014.1 |
| 20260831202539 | 69 | 94 | 0.0 | 3.0 | 0.13 | 0.85 | 0.85 | 89 | 1014.2 |
| 20260831202039 | 69 | 83 | 0.0 | 10.0 | 0.16 | 0.85 | 0.85 | 88 | 1014.6 |
| 20260831201540 | 69 | 72 | 3.0 | 10.0 | 0.17 | 0.84 | 0.84 | 89 | 1014.6 |
| 20260831201039 | 69 | 66 | 0.0 | 3.0 | 0.15 | 0.82 | 0.82 | 91 | 1014.9 |
| 20260831200759 | 69 | 123 | 0.0 | 6.0 | 0.15 | 0.80 | 0.80 | 90 | 1015.1 |
| 20260831200038 | 69 | 72 | 2.0 | 6.0 | 0.15 | 0.78 | 0.79 | 91 | 1015.1 |
| 20260831195539 | 69 | 90 | 2.0 | 9.0 | 0.24 | 0.77 | 0.77 | 91 | 1015.3 |
| 20260831195040 | 69 | 90 | 2.0 | 9.0 | 0.24 | 0.75 | 0.75 | 91 | 1015.5 |
| 20260831194801 | 69 | 76 | 2.0 | 6.0 | 0.25 | 0.75 | 0.75 | 90 | 1015.6 |
| 20260831194038 | 69 | 104 | 0.0 | 3.0 | 0.25 | 0.74 | 0.74 | 89 | 1015.4 |
| 20260831193538 | 69 | 66 | 0.0 | 3.0 | 0.27 | 0.73 | 0.73 | 90 | 1015.5 |
| 20260831193039 | 69 | 76 | 0.0 | 0.0 | 0.29 | 0.73 | 0.73 | 91 | 1015.5 |
| 20260831192537 | 69 | 141 | 0.0 | 0.0 | 0.28 | 0.72 | 0.72 | 90 | 1015.6 |
| 20260831192037 | 69 | 100 | 0.0 | 3.0 | 0.25 | 0.69 | 0.70 | 89 | 1015.4 |
| 20260831191538 | 69 | 68 | 0.0 | 4.0 | 0.23 | 0.67 | 0.68 | 88 | 1015.3 |
| 20260831191038 | 69 | 38 | 0.0 | 7.0 | 0.23 | 0.67 | 0.67 | 88 | 1015.3 |
| 20260831190538 | 69 | 61 | 4.0 | 7.0 | 0.21 | 0.65 | 0.66 | 89 | 1015.1 |
| 20260831190038 | 69 | 78 | 0.0 | 9.0 | 0.18 | 0.62 | 0.62 | 87 | 1015.3 |
| 20260831185537 | 69 | 305 | 3.0 | 9.0 | 0.09 | 0.53 | 0.53 | 86 | 1015.2 |
| 20260831185037 | 69 | 265 | 1.0 | 7.0 | 0.07 | 0.51 | 0.51 | 86 | 1015.4 |
| 20260831184537 | 69 | 241 | 3.0 | 16.0 | 0.06 | 0.50 | 0.50 | 86 | 1015.2 |
| 20260831184037 | 70 | 305 | 6.0 | 16.0 | 0.05 | 0.49 | 0.49 | 84 | 1015.0 |
| 20260831183536 | 73 | 306 | 9.0 | 15.0 | 0.02 | 0.46 | 0.48 | 77 | 1015.1 |
| 20260831183036 | 76 | 282 | 8.0 | 15.0 | 0.00 | 0.44 | 0.44 | 66 | 1015.3 |
| 20260831182537 | 77 | 159 | 0.0 | 4.0 | 0.00 | 0.44 | 0.44 | 67 | 1015.0 |
| 20260831182037 | 77 | 166 | 1.0 | 4.0 | 0.00 | 0.44 | 0.44 | 67 | 1014.4 |
| 20260831181536 | 77 | 128 | 0.0 | 5.0 | 0.00 | 0.44 | 0.44 | 68 | 1014.0 |
| 20260831181038 | 77 | 250 | 0.0 | 5.0 | 0.00 | 0.44 | 0.44 | 68 | 1013.7 |
| 20260831180536 | 77 | 216 | 0.0 | 1.0 | 0.00 | 0.44 | 0.44 | 67 | 1013.5 |
| 20260831180036 | 77 | 45 | 0.0 | 9.0 | 0.00 | 0.44 | 0.44 | 67 | 1013.7 |
| 20260831175800 | 76 | 290 | 1.0 | 11.0 | 0.00 | 0.44 | 0.44 | 68 | 1013.8 |
| 20260831175036 | 76 | 257 | 3.0 | 19.0 | 0.00 | 0.44 | 0.44 | 67 | 1013.7 |
| 20260831174536 | 75 | 296 | 7.0 | 19.0 | 0.00 | 0.44 | 0.44 | 68 | 1013.7 |
| 20260831174040 | 74 | 285 | 6.0 | 16.0 | 0.00 | 0.44 | 0.44 | 69 | 1013.7 |
| 20260831173535 | 74 | 290 | 9.0 | 18.0 | 0.00 | 0.44 | 0.44 | 70 | 1013.7 |
| 20260831173036 | 74 | 295 | 11.0 | 18.0 | 0.00 | 0.44 | 0.44 | 70 | 1013.7 |
| 20260831172535 | 74 | 306 | 6.0 | 16.0 | 0.00 | 0.44 | 0.44 | 71 | 1013.6 |
| 20260831172034 | 74 | 296 | 4.0 | 17.0 | 0.00 | 0.44 | 0.44 | 72 | 1013.5 |
| 20260831171535 | 74 | 306 | 8.0 | 17.0 | 0.00 | 0.44 | 0.44 | 72 | 1013.5 |
| 20260831171035 | 74 | 307 | 9.0 | 17.0 | 0.00 | 0.44 | 0.44 | 72 | 1013.4 |
| 20260831170535 | 74 | 312 | 10.0 | 18.0 | 0.00 | 0.44 | 0.44 | 69 | 1013.4 |
| 20260831170035 | 75 | 258 | 8.0 | 16.0 | 0.00 | 0.44 | 0.44 | 69 | 1013.4 |
| 20260831165757 | 75 | 307 | 6.0 | 15.0 | 0.00 | 0.44 | 0.44 | 69 | 1013.3 |
| 20260831165305 | 75 | 292 | 4.0 | 12.0 | 0.00 | 0.44 | 0.44 | 72 | 1013.4 |
| 20260831164534 | 75 | 293 | 2.0 | 12.0 | 0.00 | 0.44 | 0.44 | 75 | 1013.4 |
| 20260831164033 | 75 | 279 | 5.0 | 14.0 | 0.00 | 0.44 | 0.44 | 76 | 1013.3 |
| 20260831163534 | 75 | 272 | 6.0 | 14.0 | 0.00 | 0.44 | 0.44 | 77 | 1013.3 |
| 20260831163034 | 76 | 288 | 2.0 | 10.0 | 0.00 | 0.44 | 0.44 | 75 | 1013.3 |
| 20260831162534 | 76 | 282 | 5.0 | 12.0 | 0.00 | 0.44 | 0.44 | 75 | 1013.0 |
| 20260831162034 | 76 | 281 | 6.0 | 12.0 | 0.00 | 0.44 | 0.44 | 75 | 1012.9 |
| 20260831162015 | 76 | 298 | 6.0 | 9.0 | 0.00 | 0.44 | 0.44 | 74 | 1012.8 |
| 20260831161033 | 76 | 272 | 6.0 | 9.0 | 0.00 | 0.44 | 0.44 | 74 | 1012.7 |
| 20260831160535 | 76 | 283 | 4.0 | 9.0 | 0.00 | 0.44 | 0.44 | 74 | 1012.6 |
| 20260831160034 | 76 | 310 | 4.0 | 9.0 | 0.00 | 0.44 | 0.44 | 74 | 1012.6 |
| 20260831155532 | 76 | 258 | 4.0 | 7.0 | 0.00 | 0.44 | 0.44 | 74 | 1012.5 |
| 20260831155032 | 76 | 286 | 4.0 | 7.0 | 0.00 | 0.44 | 0.44 | 76 | 1012.4 |
| 20260831154750 | 76 | 288 | 0.0 | 6.0 | 0.00 | 0.44 | 0.44 | 77 | 1012.4 |
| 20260831154033 | 76 | 276 | 2.0 | 9.0 | 0.00 | 0.44 | 0.44 | 79 | 1012.4 |
| 20260831153532 | 75 | 290 | 3.0 | 9.0 | 0.00 | 0.44 | 0.44 | 80 | 1012.5 |
| 20260831153033 | 75 | 295 | 3.0 | 9.0 | 0.00 | 0.44 | 0.44 | 82 | 1012.6 |
| 20260831152755 | 74 | 282 | 4.0 | 7.0 | 0.00 | 0.44 | 0.44 | 82 | 1012.7 |
| 20260831152032 | 74 | 272 | 1.0 | 4.0 | 0.00 | 0.44 | 0.44 | 85 | 1012.7 |
| 20260831151532 | 74 | 293 | 1.0 | 6.0 | 0.00 | 0.44 | 0.44 | 84 | 1012.6 |
| 20260831151034 | 74 | 281 | 3.0 | 6.0 | 0.00 | 0.44 | 0.44 | 84 | 1012.6 |
| 20260831150533 | 73 | 296 | 0.0 | 2.0 | 0.00 | 0.44 | 0.44 | 83 | 1012.4 |
| 20260831150249 | 73 | 283 | 0.0 | 2.0 | 0.00 | 0.44 | 0.44 | 86 | 1012.3 |
| 20260831145758 | 73 | 283 | 0.0 | 2.0 | 0.00 | 0.44 | 0.44 | 86 | 1012.2 |
| 20260831145032 | 73 | 203 | 0.0 | 1.0 | 0.00 | 0.44 | 0.44 | 88 | 1012.1 |
| 20260831144531 | 72 | 204 | 0.0 | 1.0 | 0.00 | 0.44 | 0.44 | 90 | 1012.0 |
| 20260831144032 | 71 | 295 | 0.0 | 0.0 | 0.00 | 0.44 | 0.44 | 92 | 1011.8 |
| 20260831143532 | 71 | 295 | 0.0 | 0.0 | 0.00 | 0.44 | 0.44 | 92 | 1011.7 |
| 20260831143031 | 70 | 295 | 0.0 | 0.0 | 0.00 | 0.44 | 0.44 | 92 | 1011.7 |
| 20260831142749 | 70 | 295 | 0.0 | 0.0 | 0.00 | 0.44 | 0.44 | 92 | 1011.7 |
| 20260831142030 | 70 | 357 | 0.0 | 0.0 | 0.00 | 0.44 | 0.44 | 92 | 1011.7 |
| 20260831141531 | 69 | 35 | 0.0 | 0.0 | 0.00 | 0.44 | 0.44 | 91 | 1011.8 |
| 20260831141031 | 69 | 35 | 0.0 | 0.0 | 0.01 | 0.44 | 0.44 | 92 | 1011.8 |
| 20260831141018 | 69 | 35 | 0.0 | 0.0 | 0.02 | 0.44 | 0.44 | 92 | 1011.8 |
| 20260831140032 | 69 | 162 | 0.0 | 0.0 | 0.02 | 0.44 | 0.44 | 92 | 1011.8 |
| 20260831135530 | 69 | 27 | 0.0 | 0.0 | 0.03 | 0.44 | 0.44 | 91 | 1012.0 |
| 20260831135030 | 69 | 27 | 0.0 | 0.0 | 0.03 | 0.44 | 0.44 | 91 | 1012.0 |
| 20260831134749 | 69 | 87 | 0.0 | 0.0 | 0.06 | 0.44 | 0.44 | 92 | 1012.0 |
| 20260831134030 | 69 | 124 | 0.0 | 0.0 | 0.07 | 0.44 | 0.44 | 91 | 1012.0 |
| 20260831133742 | 69 | 155 | 2.0 | 9.0 | 0.08 | 0.44 | 0.44 | 91 | 1011.7 |
| 20260831133629 | 69 | 240 | 0.0 | 4.0 | 0.07 | 0.44 | 0.44 | 92 | 1012.1 |
| 20260831132529 | 69 | 162 | 2.0 | 10.0 | 0.08 | 0.44 | 0.44 | 91 | 1011.5 |
| 20260831132255 | 69 | 97 | 2.0 | 12.0 | 0.09 | 0.44 | 0.44 | 91 | 1011.5 |
| 20260831131530 | 70 | 124 | 3.0 | 12.0 | 0.09 | 0.44 | 0.44 | 90 | 1011.5 |
| 20260831131030 | 70 | 175 | 0.0 | 4.0 | 0.08 | 0.43 | 0.43 | 89 | 1011.6 |
| 20260831130529 | 70 | 107 | 0.0 | 10.0 | 0.07 | 0.42 | 0.43 | 87 | 1011.6 |
| 20260831130029 | 71 | 97 | 2.0 | 20.0 | 0.06 | 0.41 | 0.42 | 84 | 1011.7 |
| 20260831125528 | 72 | 3 | 7.0 | 20.0 | 0.06 | 0.41 | 0.41 | 77 | 1011.7 |
| 20260831125029 | 72 | 307 | 3.0 | 14.0 | 0.07 | 0.41 | 0.41 | 77 | 1012.0 |
| 20260831124529 | 72 | 319 | 7.0 | 18.0 | 0.09 | 0.38 | 0.38 | 75 | 1012.1 |
| 20260831124029 | 72 | 331 | 5.0 | 18.0 | 0.25 | 0.37 | 0.37 | 77 | 1012.0 |
| 20260831123529 | 72 | 288 | 5.0 | 11.0 | 0.34 | 0.37 | 0.37 | 80 | 1012.2 |
| 20260831123029 | 71 | 323 | 3.0 | 11.0 | 0.36 | 0.36 | 0.36 | 81 | 1012.4 |
| 20260831123009 | 71 | 286 | 4.0 | 11.0 | 0.36 | 0.36 | 0.36 | 82 | 1012.1 |
| 20260831122028 | 71 | 312 | 6.0 | 10.0 | 0.35 | 0.35 | 0.35 | 83 | 1012.0 |
| 20260831121528 | 71 | 275 | 3.0 | 7.0 | 0.35 | 0.35 | 0.35 | 83 | 1012.1 |
| 20260831121244 | 71 | 295 | 2.0 | 9.0 | 0.35 | 0.35 | 0.35 | 84 | 1012.0 |
| 20260831120528 | 70 | 283 | 4.0 | 9.0 | 0.35 | 0.35 | 0.35 | 87 | 1011.8 |
| 20260831120028 | 70 | 262 | 4.0 | 10.0 | 0.35 | 0.35 | 0.35 | 87 | 1011.6 |
| 20260831115527 | 70 | 295 | 6.0 | 17.0 | 0.35 | 0.35 | 0.35 | 87 | 1011.7 |
| 20260831115027 | 70 | 286 | 6.0 | 17.0 | 0.34 | 0.34 | 0.34 | 85 | 1011.6 |
| 20260831115014 | 72 | 312 | 8.0 | 17.0 | 0.29 | 0.29 | 0.32 | 81 | 1011.7 |
| 20260831114518 | 74 | 295 | 8.0 | 17.0 | 0.12 | 0.12 | 0.13 | 75 | 1011.7 |
| 20260831113526 | 76 | 305 | 10.0 | 17.0 | 0.03 | 0.03 | 0.03 | 69 | 1011.4 |
| 20260831113027 | 77 | 286 | 7.0 | 19.0 | 0.00 | 0.00 | 0.00 | 64 | 1011.4 |
| 20260831112527 | 79 | 298 | 10.0 | 19.0 | 0.00 | 0.00 | 0.00 | 60 | 1011.1 |
| 20260831112027 | 80 | 274 | 0.0 | 0.0 | 0.00 | 0.00 | 0.00 | 59 | 1010.4 |
| 20260831111527 | 79 | 299 | 0.0 | 0.0 | 0.00 | 0.00 | 0.00 | 60 | 1010.3 |
| 20260831111248 | 79 | 24 | 0.0 | 0.0 | 0.00 | 0.00 | 0.00 | 60 | 1010.3 |
| 20260831110526 | 79 | 25 | 0.0 | 0.0 | 0.00 | 0.00 | 0.00 | 60 | 1010.2 |
| 20260831110025 | 79 | 25 | 0.0 | 0.0 | 0.00 | 0.00 | 0.00 | 57 | 1010.0 |
| 20260831105526 | 80 | 25 | 0.0 | 0.0 | 0.00 | 0.00 | 0.00 | 58 | 1009.9 |
| 20260831105025 | 80 | 25 | 0.0 | 0.0 | 0.00 | 0.00 | 0.00 | 56 | 1009.7 |
| 20260831104526 | 79 | 25 | 0.0 | 0.0 | 0.00 | 0.00 | 0.00 | 57 | 1009.7 |
| 20260831104247 | 78 | 25 | 0.0 | 0.0 | 0.00 | 0.00 | 0.00 | 59 | 1009.5 |